{"data":{"norad_id":66431,"epoch":"2026-05-25T04:34:03.033696Z","epoch_age_seconds":62179,"freshness":"FRESH","line1":"1 66431U 25259K   26145.19031289  .00008114  00000+0  30399-3 0  9994","line2":"2 66431  42.9984 202.0919 0000746 270.5206  89.5561 15.27586719 31199","mean_motion":15.27586719,"eccentricity":7.46e-5,"inclination_deg":42.9984,"raan_deg":202.0919,"arg_perigee_deg":270.5206,"mean_anomaly_deg":89.5561,"bstar":0.00030399,"rev_number":3119,"period_min":94.266334086923,"perigee_km":482.51713402837,"apogee_km":483.54081999213,"semimajor_km":6861.1659770102,"source":"CELESTRAK","updated_at":"2026-05-25T13:38:21.208589Z"}}